Ingeniero Juan Guillermo Villasana Airport

Jump to: basic info | weather | frequencies | runways | comments

Related pages: nearby airports | nearby navaids | notams | map

Basic information (top)

Codes: MMPC
Location: lon 20.077400, lat -98.782501, elev 7,600 ft / 2,316 m msl
Status: small_airport

Weather (top)

Current conditions for Licenciado Benito Juarez International Airport 42nm (77km) SSW (rec'd 2014/04/24 04:43Z):

MMMX 240443Z 11003KT 12SM FEW080 18/05 A3030 NOSIG RMK 8/030 CI

Airport forecast for Licenciado Benito Juarez International Airport 42nm (77km) SSW (rec'd 2014/04/24 00:59Z):

TAF COR MMMX 240152Z 2400/2506 23012KT 6SM HZ SCT020CB BKN080 BKN200 TX25/2421Z TN13/2412Z 
     FM240400 21005KT P6SM SCT020 BKN250 
      TEMPO 2413/2417 4SM HZ 
     FM241700 31010KT P6SM SCT020 
      BECMG 2421/2422 BKN020CB 
      TEMPO 2423/2503 5SM TSRA 
     FM250300 04005KT P6SM SCT100 BKN250

Frequencies (top)

Verify before use: may be inaccurate or out of date.

AFIS: 122.9 MHz (AFIS)

Runways (top)

03/21: 6,825 x 85 ft (2,080 x 26 m) — paved — not lighted — threshold 03 displaced 656 ft (200 m) — threshold 21 displaced 865 ft (264 m)

Latest comments (top)

No comments yet for Ingeniero Juan Guillermo Villasana Airport

More... (top)

See also NOTAMs and nearby airports and navaids, or visit the Ingeniero Juan Guillermo Villasana Airport page at the main OurAirports website..